Погода в Высокогорске

Россия / Приморский край     44°24′20″N   135°23′47″E
темп.,
°C
ветер,
м/с
пор.,
м/с
влажн.,
%
обл.,
%
осадки,
мм/ч
давл.,
гПа
погр.,
м
20 апреля, вт
вт2001:00+6зюз226139 0.0 100221
04:00+5зсз4117532 0.0 1004551
07:000сз618420 0.1 10071291
10:00+3зсз822320 0.1 10082032
13:00+6зсз926220 0.0 10072713
16:00+8сз927210 0.0 10073220
19:00+5сз820270 0.0 10112036
22:00+3сз719300 0.0 10141318
21 апреля, ср
ср2101:00+3сз519270 0.0 10151502
04:00+3сз517260 0.0 1015946
07:00+5сз619260 0.0 10161197
10:00+11сз616220 0.0 10161299
13:00+15сз614210 0.0 10161797
16:00+17сз611220 0.0 10161897
19:00+14сз37310 0.0 1017314
22:00+8зсз22450 0.0 102028
22 апреля, чт
чт2201:00+6зсз22480 0.0 102123
04:00+5ссв00520 0.0 102311
07:00+3юв12625 0.0 102660
10:00+9юв22401 0.0 1027591
13:00+13юв32330 0.0 1025869
16:00+12юв3238100 0.0 1024774
19:00+7юв2255100 0.0 1026298
22:00+3ююз1170100 0.0 102812
23 апреля, пт
пт2301:00+3зсз116897 0.0 102710
04:00+3зсз11635 0.0 102610
07:00+5зсз225433 0.0 102524
10:00+18зсз12339 0.0 1022523
13:00+23з1321100 0.0 10202359
16:00+22сз3321100 0.0 10192590
19:00+17сз3734100 0.0 1020281
22:00+12зсз2253100 0.0 102032
24 апреля, сб
сб2401:00+11зсз2257100 0.0 101941
04:00+10зсз3661100 0.0 1018192
07:00+10зсз3670100 0.0 1017342
10:00+8сз5116498 0.0 1017903
13:00+8сз51039100 0.0 10171205
16:00+9сз61125100 0.0 10161759
19:00+7сз511260 0.0 10172158
22:00+3ссз411355 0.0 10191216